Location: Seattle
(47.6064°N, 122.3308°W)
Time: 01:15:30
(UTC-08:00)

A-11 Canister half - Pass Details

Date: 29 November 2020
Orbit: 1524 x 1684 km, 47.3° (Epoch: 27 January)

Event Time Altitude Azimuth Distance (km) Brightness Sun altitude
Rises 06:40:48 0° 240° (WSW) 4,932 11.3 -8.9°
Reaches altitude 10° 06:43:59 10° 239° (WSW) 3,942 10.8 -8.4°
Maximum altitude 06:54:03 72° 158° (SSE) 1,738 9.5 -6.9°
Drops below altitude 10° 07:03:54 10° 77° (ENE) 3,865 11.9 -5.4°
Sets 07:06:59 0° 75° (ENE) 4,831 12.4 -4.9°
